IZ1UQG-1 Weather Reports


time (UTC)temp
C
wind
direction
speed
KPH
gust
KPH
rain 1hr
cm
rain 24hr
cm
rain mn
cm
humidity
%
barometer
mb
20260505181855 14 0 0.0 0.0 22.48 21.82 0.00 78 1012.4
20260505181355 15 0 0.0 0.0 22.23 2.44 0.00 78 1012.4
20260505180855 15 0 0.0 0.0 24.51 2.44 0.00 78 1012.3
20260505180355 15 0 0.0 0.0 1.32 2.44 0.00 78 1012.5
20260505175855 15 0 0.0 0.0 9.09 2.44 0.00 78 1012.5
20260505175355 15 0 0.0 0.0 10.29 2.44 0.00 78 1012.3
20260505174855 15 0 0.0 0.0 14.96 2.44 0.00 78 1012.4
20260505174355 15 0 0.0 0.0 13.51 2.44 0.00 78 1012.5
20260505173855 15 0 0.0 0.0 1.17 2.44 0.00 78 1012.4
20260505173355 15 0 0.0 0.0 0.94 2.44 0.00 78 1012.5
20260505172855 15 0 0.0 0.0 1.88 2.44 0.00 78 1012.5
20260505172355 15 0 0.0 0.0 23.14 4.55 0.00 78 1012.5
20260505171855 15 0 0.0 0.0 20.65 21.56 0.00 78 1012.3
20260505171355 15 0 0.0 0.0 4.06 2.44 0.00 78 1012.5
20260505170855 15 0 0.0 0.0 0.13 2.44 0.00 78 1012.6
20260505170355 15 0 0.0 0.0 23.09 2.44 0.00 78 1012.5
20260505165855 15 0 0.0 0.0 16.31 2.44 0.00 78 1012.5
20260505165355 15 0 0.0 0.0 4.47 2.44 0.00 78 1012.5
20260505164855 15 0 0.0 0.0 23.09 2.44 0.00 78 1012.4
20260505164355 15 0 0.0 0.0 14.61 2.44 0.00 78 1012.4
20260505163855 15 0 0.0 0.0 7.85 2.44 0.00 78 1012.6
20260505163355 15 0 0.0 0.0 23.75 2.44 0.00 78 1012.6
20260505162855 15 0 0.0 0.0 1.57 2.44 0.00 78 1012.6
20260505162355 15 0 0.0 0.0 22.10 2.44 0.00 78 1012.6
20260505161855 15 0 0.0 0.0 22.58 21.97 0.00 78 1012.7
20260505161355 15 0 0.0 0.0 21.06 2.44 0.00 78 1012.5
20260505160855 15 0 0.0 0.0 21.18 2.44 0.00 78 1012.6
20260505160355 15 0 0.0 0.0 17.96 2.44 0.00 78 1012.6
20260505153355 15 0 0.0 0.0 18.11 2.44 0.00 78 1012.9
20260505152855 15 0 0.0 0.0 0.48 2.44 0.00 78 1012.9
20260505152355 15 0 0.0 0.0 20.29 2.44 0.00 78 1012.8
20260505151855 15 0 0.0 0.0 9.83 23.47 0.00 78 1012.8
20260505151355 15 0 0.0 0.0 17.35 2.44 0.00 78 1012.8
20260505150855 15 0 0.0 0.0 15.82 2.44 0.00 78 1012.8
20260505150355 15 0 0.0 0.0 0.18 2.44 0.00 78 1012.7
20260505140355 15 0 0.0 0.0 19.41 2.44 0.00 78 1013.0
20260505124855 15 0 0.0 0.0 17.96 2.44 0.00 78 1013.1
20260505124355 15 0 0.0 0.0 16.61 2.44 0.00 78 1013.2
20260505123855 15 0 0.0 0.0 8.59 2.44 0.00 78 1013.2
20260505123355 15 0 0.0 0.0 16.46 2.44 0.00 78 1013.2
20260505122855 15 0 0.0 0.0 13.92 2.44 0.00 78 1013.2
20260505122355 15 0 0.0 0.0 16.97 2.44 0.00 78 1013.2
20260505121855 15 0 0.0 0.0 15.37 21.13 0.00 78 1013.2
20260505121355 15 0 0.0 0.0 11.23 2.44 0.00 77 1013.1
20260505120855 15 0 0.0 0.0 12.98 2.44 0.00 77 1013.1
20260505120355 15 0 0.0 0.0 15.67 2.44 0.00 78 1013.1
20260505115855 15 0 0.0 0.0 9.78 2.44 0.00 77 1013.3
20260505115355 15 0 0.0 0.0 17.35 2.44 0.00 77 1013.4
20260505114855 15 0 0.0 0.0 11.68 2.44 0.00 77 1013.3
20260505114355 15 0 0.0 0.0 10.67 2.44 0.00 78 1013.3
20260505113855 15 0 0.0 0.0 8.18 2.44 0.00 78 1013.4
20260505113355 16 0 0.0 0.0 18.47 2.44 0.00 78 1013.4
20260505112855 16 0 0.0 0.0 13.36 2.44 0.00 78 1013.6
20260505112355 15 0 0.0 0.0 15.11 0.25 0.00 78 1013.6
20260505111855 15 0 0.0 0.0 10.39 21.18 0.00 78 1013.4
20260505111355 15 0 0.0 0.0 20.80 2.44 0.00 78 1013.6
20260505110855 15 0 0.0 0.0 18.54 2.44 0.00 78 1013.7
20260505110355 15 0 0.0 0.0 14.43 2.44 0.00 78 1013.7
20260505101855 15 0 0.0 0.0 5.44 21.77 0.00 76 1014.0
20260505101355 15 0 0.0 0.0 10.19 2.44 0.00 76 1014.1
20260505100855 15 0 0.0 0.0 10.82 2.44 0.00 76 1014.1
20260505100355 15 0 0.0 0.0 10.77 2.44 0.00 76 1014.2
20260505095855 15 0 0.0 0.0 25.02 2.44 0.00 76 1014.1
20260505095355 15 0 0.0 0.0 12.12 2.44 0.00 76 1014.0
20260505094855 15 0 0.0 0.0 9.83 2.44 0.00 76 1014.1
20260505094355 15 0 0.0 0.0 7.39 2.44 0.00 76 1014.0
20260505093855 15 0 0.0 0.0 1.75 2.44 0.00 75 1014.1
20260505093355 15 0 0.0 0.0 11.48 2.44 0.00 75 1014.1
20260505092855 15 0 0.0 0.0 10.72 2.44 0.00 75 1014.0
20260505092355 15 0 0.0 0.0 7.04 3.66 0.00 75 1013.9
20260505091855 15 0 0.0 0.0 6.93 21.29 0.00 75 1013.9
20260505091355 15 0 0.0 0.0 21.44 2.44 0.00 75 1013.8
20260505090855 15 0 0.0 0.0 15.72 2.44 0.00 75 1013.8
20260505090355 15 0 0.0 0.0 21.39 2.44 0.00 75 1014.0
20260505085855 15 0 0.0 0.0 16.56 2.44 0.00 75 1013.8
20260505085355 15 0 0.0 0.0 23.75 2.44 0.00 75 1013.7
20260505084855 15 0 0.0 0.0 20.29 2.44 0.00 74 1013.7
20260505084356 15 0 0.0 0.0 19.56 2.44 0.00 74 1013.7
20260505083855 15 0 0.0 0.0 10.39 2.44 0.00 74 1013.8
20260505083355 15 0 0.0 0.0 21.18 2.44 0.00 74 1013.7
20260505082856 15 0 0.0 0.0 20.04 2.44 0.00 74 1013.8
20260505082356 15 0 0.0 0.0 17.35 2.44 0.00 74 1013.8
20260505081856 15 0 0.0 0.0 8.28 1.07 0.00 74 1013.8
20260505081356 15 0 0.0 0.0 18.54 2.44 0.00 74 1013.9
20260505080856 15 0 0.0 0.0 19.25 2.44 0.00 73 1014.0
20260505080356 15 0 0.0 0.0 11.84 2.44 0.00 73 1014.0
20260505075856 15 0 0.0 0.0 3.40 2.44 0.00 73 1014.0
20260505075356 15 0 0.0 0.0 14.66 2.44 0.00 73 1014.1
20260505074856 15 0 0.0 0.0 20.14 2.44 0.00 73 1014.1
20260505074356 15 0 0.0 0.0 22.40 2.44 0.00 72 1014.2
20260505073856 15 0 0.0 0.0 21.39 2.44 0.00 73 1014.2
20260505073356 15 0 0.0 0.0 21.39 2.44 0.00 73 1014.2
20260505072856 15 0 0.0 0.0 16.10 2.44 0.00 73 1014.1
20260505072356 15 0 0.0 0.0 21.39 2.44 0.00 73 1014.0
20260505071856 14 0 0.0 0.0 11.94 1.65 0.00 73 1013.9
20260505071356 14 0 0.0 0.0 14.02 2.44 0.00 73 1013.8
20260505070856 15 0 0.0 0.0 13.18 2.44 0.00 72 1013.8
20260505070356 14 0 0.0 0.0 13.23 2.44 0.00 72 1013.7
20260505065856 14 0 0.0 0.0 9.14 2.44 0.00 72 1013.7
20260505065356 14 0 0.0 0.0 17.70 2.44 0.00 72 1013.5
20260505064856 15 0 0.0 0.0 13.23 2.44 0.00 72 1013.7
20260505064356 15 0 0.0 0.0 12.22 2.44 0.00 72 1013.6
20260505063856 15 0 0.0 0.0 20.55 2.44 0.00 72 1013.6
20260505063356 15 0 0.0 0.0 15.95 2.44 0.00 71 1013.7
20260505062856 15 0 0.0 0.0 15.95 2.44 0.00 71 1013.6
20260505062356 15 0 0.0 0.0 14.22 0.30 0.00 71 1013.5
20260505061856 15 0 0.0 0.0 9.14 20.93 0.00 70 1013.6
20260505061356 15 0 0.0 0.0 16.81 2.44 0.00 71 1013.6
20260505060856 15 0 0.0 0.0 16.87 2.44 0.00 71 1013.5
20260505060356 15 0 0.0 0.0 9.88 2.44 0.00 70 1013.4
20260505055856 15 0 0.0 0.0 13.72 2.44 0.00 70 1013.3
20260505055356 15 0 0.0 0.0 14.53 2.44 0.00 69 1013.2
20260505054856 15 0 0.0 0.0 10.92 2.44 0.00 69 1013.2
20260505054356 15 0 0.0 0.0 13.23 2.44 0.00 69 1013.2
20260505053856 15 0 0.0 0.0 11.63 2.44 0.00 69 1013.0
20260505053356 15 0 0.0 0.0 13.67 2.44 0.00 68 1012.9
20260505052856 15 0 0.0 0.0 10.59 2.44 0.00 67 1013.1
20260505052356 15 0 0.0 0.0 12.17 2.44 0.00 67 1013.0
20260505051856 15 0 0.0 0.0 7.19 22.02 0.00 67 1012.9
20260505051356 15 0 0.0 0.0 13.87 2.44 0.00 66 1012.7
20260505050856 15 0 0.0 0.0 12.17 2.44 0.00 66 1012.8
20260505050356 15 0 0.0 0.0 15.77 2.44 0.00 65 1012.7
20260505041356 16 0 0.0 0.0 12.78 2.44 0.00 61 1012.2
20260505040856 16 0 0.0 0.0 10.44 2.44 0.00 61 1012.2
20260505040356 16 0 0.0 0.0 7.29 2.44 0.00 61 1012.1
20260505035856 16 0 0.0 0.0 1.07 2.44 0.00 61 1012.0
20260505035356 16 0 0.0 0.0 11.84 2.44 0.00 60 1012.1
20260505034856 16 0 0.0 0.0 11.79 2.44 0.00 60 1011.9
20260505034356 16 0 0.0 0.0 8.53 2.44 0.00 59 1012.1
20260505033856 16 0 0.0 0.0 7.75 2.44 0.00 59 1012.0
20260505033356 16 0 0.0 0.0 15.42 2.44 0.00 58 1012.3
20260505032856 16 0 0.0 0.0 13.31 2.44 0.00 58 1012.3
20260505032356 16 0 0.0 0.0 8.69 1.70 0.00 57 1012.3
20260505031856 16 0 0.0 0.0 7.65 22.38 0.00 56 1012.4
20260505031356 16 0 0.0 0.0 18.64 2.44 0.00 55 1012.4
20260505030856 16 0 0.0 0.0 16.21 2.44 0.00 55 1012.3
20260505030356 16 0 0.0 0.0 16.41 2.44 0.00 54 1012.4
20260505025856 16 0 0.0 0.0 20.60 2.44 0.00 54 1012.6
20260505025356 16 0 0.0 0.0 19.99 2.44 0.00 54 1012.5
20260505024856 16 0 0.0 0.0 20.24 2.44 0.00 54 1012.5
20260505024356 16 0 0.0 0.0 11.63 2.44 0.00 54 1012.4
20260505023856 17 0 0.0 0.0 11.63 2.44 0.00 54 1012.3
20260505023356 17 0 0.0 0.0 20.85 2.44 0.00 54 1012.6
20260505022856 17 0 0.0 0.0 19.94 2.44 0.00 54 1012.7
20260505022356 17 0 0.0 0.0 20.75 2.44 0.00 53 1012.7
20260505021856 17 0 0.0 0.0 9.73 23.72 0.00 53 1012.6
20260505021356 17 0 0.0 0.0 19.51 2.44 0.00 53 1012.7
20260505020856 17 0 0.0 0.0 19.89 2.44 0.00 53 1012.8
20260505020356 17 0 0.0 0.0 15.52 2.44 0.00 53 1012.8
20260505015856 17 0 0.0 0.0 5.79 2.44 0.00 52 1012.7
20260505015356 17 0 0.0 0.0 19.89 2.44 0.00 52 1012.8
20260505014856 17 0 0.0 0.0 18.36 2.44 0.00 52 1012.8
20260505014356 17 0 0.0 0.0 13.92 2.44 0.00 52 1012.9
20260505013856 17 0 0.0 0.0 7.65 2.44 0.00 52 1013.0
20260505013356 17 0 0.0 0.0 13.92 2.44 0.00 52 1013.1
20260505012856 17 0 0.0 0.0 10.44 2.44 0.00 52 1013.0
20260505012356 17 0 0.0 0.0 7.65 2.44 0.00 52 1013.1
20260505011856 17 0 0.0 0.0 23.42 22.17 0.00 52 1013.4
20260505011356 17 0 0.0 0.0 8.94 2.44 0.00 52 1013.3
20260505010856 17 0 0.0 0.0 11.28 2.44 0.00 52 1013.4
20260505010356 17 0 0.0 0.0 6.05 2.44 0.00 52 1013.4
20260505005856 17 0 0.0 0.0 22.91 2.44 0.00 52 1013.6
20260505005356 17 0 0.0 0.0 11.38 2.44 0.00 52 1013.6
20260505004856 17 0 0.0 0.0 12.32 2.44 0.00 52 1013.6
20260505004356 17 0 0.0 0.0 11.18 2.44 0.00 52 1013.7
20260505003856 17 0 0.0 0.0 13.18 2.44 0.00 52 1013.9
20260505003356 17 0 0.0 0.0 17.07 2.44 0.00 52 1014.0
20260505002856 17 0 0.0 0.0 16.15 2.44 0.00 51 1013.8
20260505002356 17 0 0.0 0.0 19.05 2.44 0.00 51 1013.9
20260505001856 17 0 0.0 0.0 8.48 23.27 0.00 51 1013.9
20260505001356 17 0 0.0 0.0 12.01 2.44 0.00 51 1014.0
20260505000856 17 0 0.0 0.0 12.12 2.44 0.00 51 1014.1
20260505000358 17 0 0.0 0.0 10.72 2.44 0.00 51 1014.1
20260504235856 17 0 0.0 0.0 0.97 2.44 0.00 51 1014.2
20260504235356 17 0 0.0 0.0 9.09 2.44 0.00 51 1014.2
20260504234856 17 0 0.0 0.0 6.99 2.44 0.00 51 1014.4
20260504234356 17 0 0.0 0.0 10.08 2.44 0.00 51 1014.6
20260504233856 17 0 0.0 0.0 8.99 2.44 0.00 51 1014.8
20260504233356 17 0 0.0 0.0 5.16 2.44 0.00 51 1014.7
20260504232856 17 0 0.0 0.0 5.59 2.44 0.00 50 1014.6
20260504232356 17 0 0.0 0.0 3.00 2.24 0.00 50 1014.7
20260504231856 17 0 0.0 0.0 24.97 20.27 0.00 50 1014.7
20260504231356 17 0 0.0 0.0 7.04 2.44 0.00 50 1014.7
20260504230856 17 0 0.0 0.0 6.05 2.44 0.00 50 1014.9
20260504230356 17 0 0.0 0.0 2.95 2.44 0.00 50 1014.9
20260504225856 17 0 0.0 0.0 19.13 2.44 0.00 50 1014.9
20260504225356 17 0 0.0 0.0 1.50 2.44 0.00 49 1014.9
20260504224856 17 0 0.0 0.0 23.37 2.44 0.00 50 1015.2
20260504224356 17 0 0.0 0.0 17.83 2.44 0.00 49 1015.1
20260504223856 17 0 0.0 0.0 16.43 2.44 0.00 49 1015.2
20260504223356 17 0 0.0 0.0 25.32 2.44 0.00 49 1015.1
20260504222856 18 0 0.0 0.0 21.87 2.44 0.00 49 1015.1
20260504222356 18 0 0.0 0.0 19.53 0.61 0.00 49 1015.3
20260504221856 18 0 0.0 0.0 15.44 21.08 0.00 49 1015.1
20260504221356 18 0 0.0 0.0 24.56 2.44 0.00 49 1015.1
20260504220856 18 0 0.0 0.0 24.66 2.44 0.00 49 1015.2
20260504220356 18 0 0.0 0.0 23.01 2.44 0.00 49 1015.1
20260504215856 18 0 0.0 0.0 0.15 2.44 0.00 49 1015.3
20260504215357 18 0 0.0 0.0 4.34 2.44 0.00 49 1015.2
20260504214856 18 0 0.0 0.0 24.13 2.44 0.00 49 1015.3
20260504214356 18 0 0.0 0.0 23.27 2.44 0.00 49 1015.3
20260504213856 18 0 0.0 0.0 14.86 2.44 0.00 49 1015.3
20260504213356 18 0 0.0 0.0 20.37 2.44 0.00 48 1015.5
20260504212856 18 0 0.0 0.0 19.33 2.44 0.00 48 1015.2
20260504212356 18 0 0.0 0.0 17.30 2.44 0.00 48 1015.5
20260504211857 18 0 0.0 0.0 19.89 0.81 0.00 48 1015.3
20260504211357 18 0 0.0 0.0 21.82 2.44 0.00 48 1015.3
20260504210857 18 0 0.0 0.0 20.14 2.44 0.00 48 1015.5
20260504210356 18 0 0.0 0.0 19.99 2.44 0.00 48 1015.4
20260504205857 18 0 0.0 0.0 22.38 2.44 0.00 48 1015.3
20260504205357 19 0 0.0 0.0 16.99 2.44 0.00 48 1015.4
20260504204857 19 0 0.0 0.0 14.61 2.44 0.00 47 1015.4
20260504204357 19 0 0.0 0.0 13.84 2.44 0.00 47 1015.4
20260504203857 19 0 0.0 0.0 14.35 2.44 0.00 47 1015.5
20260504203357 19 0 0.0 0.0 18.03 2.44 0.00 47 1015.3
20260504202857 20 0 0.0 0.0 15.44 2.44 0.00 47 1015.3
20260504202357 20 0 0.0 0.0 11.86 4.75 0.00 47 1015.4
20260504201857 20 0 0.0 0.0 9.86 22.28 0.00 47 1015.4
20260504201357 20 0 0.0 0.0 11.56 2.44 0.00 47 1015.5
20260504200857 20 0 0.0 0.0 10.06 2.44 0.00 46 1015.4
20260504200357 20 0 0.0 0.0 5.38 2.44 0.00 46 1015.3
20260504195857 20 0 0.0 0.0 2.59 2.44 0.00 46 1015.4
20260504195357 20 0 0.0 0.0 13.00 2.44 0.00 46 1015.3
20260504194857 20 0 0.0 0.0 11.71 2.44 0.00 46 1015.2
20260504194357 20 0 0.0 0.0 7.16 2.44 0.00 46 1015.1
20260504193857 20 0 0.0 0.0 5.28 2.44 0.00 46 1015.1
20260504193357 20 0 0.0 0.0 12.75 2.44 0.00 46 1015.0
20260504192857 20 0 0.0 0.0 8.97 1.55 0.00 45 1014.9
20260504192357 20 0 0.0 0.0 9.17 4.34 0.00 45 1014.9
20260504191857 21 0 0.0 0.0 5.18 19.58 0.00 45 1014.9
20260504191357 21 0 0.0 0.0 18.19 2.44 0.00 45 1014.7
20260504190857 21 0 0.0 0.0 16.43 2.44 0.00 45 1014.7
20260504190357 21 0 0.0 0.0 13.31 2.44 0.00 45 1014.7
20260504185857 21 0 0.0 0.0 6.02 2.44 0.00 45 1014.5
20260504185357 21 0 0.0 0.0 19.63 2.44 0.00 45 1014.5
20260504184857 21 0 0.0 0.0 17.35 2.44 0.00 44 1014.4
20260504184357 21 0 0.0 0.0 19.43 2.44 0.00 44 1014.5
20260504183857 21 0 0.0 0.0 15.44 2.44 0.00 44 1014.3
20260504183357 21 0 0.0 0.0 0.71 2.44 0.00 44 1014.2
20260504182857 21 0 0.0 0.0 23.42 2.44 0.00 44 1014.3
20260504182357 21 0 0.0 0.0 24.08 2.44 0.00 44 1014.3